Tracking 29892 objects as of 21-Nov-2024
HD Live streaming from Space Station
objects crossing your sky now

STARLINK-5136

Track STARLINK-5136 now!
10-day predictions
STARLINK-5136 is classified as:


NORAD ID: 56414
Int'l Code: 2023-061AS
Perigee: 565.4 km
Apogee: 567.1 km
Inclination: 43.0 °
Period: 95.8 minutes
Semi major axis: 6937 km
RCS: Unknown
Launch date: May 4, 2023
Source: United States (US)
Launch site: AIR FORCE EASTERN TEST RANGE (AFETR)
Your satellite tracking list
Your tracking list is empty




NASA's NSSDC Master Catalog

Two Line Element Set (TLE):
1 56414U 23061AS  24326.14121401 -.00001153  00000-0 -70300-4 0  9999
2 56414  43.0028 237.3425 0001210 260.1936  99.8769 15.02526831 85965
Source of the keplerian elements: AFSPC